#timestamp,LO_Frequency,Hit,StdDev 
1587733215.8,286046998.4,N
1587733235.6,286046998.3,N
1587733255.5,286046998.6,N
1587733275.3,286047001.0,N
1587733295.2,286047000.6,N
1587733315.0,286047001.1,N
1587733315.9,286047001.1,N
1587733335.7,286046999.2,N
1587733355.6,286046997.5,N
1587733375.4,286046996.9,N
1587733395.3,286046999.3,N
1587733415.1,286046998.7,N
1587733435.8,286046998.9,N
1587733455.7,286046998.9,N
1587733475.5,286046998.4,N
1587733495.4,286046999.3,N
1587733515.2,286046996.9,N
1587733535.0,286046998.9,N
1587733535.9,286046998.9,N
1587733555.8,286046999.2,N
1587733575.6,286046999.1,N
1587733595.5,286046999.2,N
1587733615.3,286046999.6,N
1587733635.1,286046999.4,N
1587733655.9,286047000.3,N
1587733675.7,286047000.5,N
1587733695.5,286047000.5,N
1587733715.4,286047002.7,N
1587733735.2,286047000.4,N
1587733755.1,286047000.1,N
1587733756.0,286047000.1,N
1587733775.8,286047000.4,N
1587733795.6,286047002.3,N
1587733815.5,286047002.1,N
1587733835.3,286047002.4,N
1587733855.2,286047004.3,N
1587733875.0,286047001.4,N
1587733875.9,286047001.4,N
1587733895.8,286047001.4,N
1587733915.6,286046999.7,N
1587733935.4,286047003.9,N
1587733955.3,286047002.3,N
1587733975.1,286047002.3,N
1587733995.8,286047002.0,N
1587734015.7,286047003.7,N
1587734035.5,286047004.4,N
1587734055.4,286047002.1,N
1587734075.2,286047000.4,N
1587734095.0,286047000.2,N
1587734095.9,286047000.2,N
1587734115.8,286047001.5,N
1587734135.6,286047003.8,N
1587734155.5,286047001.4,N
1587734175.3,286047002.0,N
1587734195.1,286047001.3,N
1587734215.9,286047004.0,Y
1587734235.7,286047000.8,P
1587734255.6,286047000.5,N
1587734275.4,286046998.5,N
1587734295.2,286046998.5,N
1587734315.1,286046998.1,N
1587734316.0,286046998.1,N
1587734335.8,286047000.2,N
1587734355.7,286047000.1,N
1587734375.5,286046999.9,N
1587734395.3,286047002.0,N
1587734415.2,286047002.7,N
1587734435.0,286047002.8,N
1587734435.9,286047002.8,N
1587734455.7,286047000.1,N
1587734475.6,286046998.3,N
1587734495.4,286046998.8,N
1587734515.3,286046998.2,N
1587734535.1,286046998.9,N
1587734536.0,286046998.9,N
1587734555.8,286047001.0,N
1587734575.7,286047001.0,N
1587734595.5,286047002.7,N
1587734615.4,286047001.8,N
1587734635.2,286047002.3,N
1587734655.0,286047002.8,N
1587734655.9,286047002.8,N
1587734675.8,286047002.8,N
1587734695.6,286047000.1,N
1587734715.5,286047000.3,N
1587734735.3,286047000.9,N
1587734755.1,286046999.9,N
1587734775.9,286047000.1,N
1587734795.7,286047002.4,N
1587734815.6,286047002.5,N
1587734835.4,286047002.6,N
1587734855.2,286047001.6,N
1587734875.1,286047002.2,N
1587734876.0,286047002.2,N
1587734895.8,286047001.7,N
1587734915.7,286047001.5,N
1587734935.5,286047003.6,N
1587734955.3,286047001.9,N
1587734975.2,286047002.0,N
1587734995.0,286047001.6,N
1587734995.9,286047001.6,N
1587735015.7,286047001.3,N
1587735035.6,286047001.4,N
1587735055.4,286047002.7,N
1587735075.3,286047000.1,N
1587735095.1,286047002.3,N
1587735096.0,286047002.3,N
1587735115.8,286047002.7,N
1587735135.7,286047002.1,N
1587735155.5,286047004.4,Y
1587735175.4,286046998.2,P
1587735195.2,286046998.2,N
1587735215.0,286046998.6,N
1587735215.9,286046998.6,N
1587735235.8,286047001.0,N
1587735255.6,286046998.3,N
1587735275.4,286047001.1,N
1587735295.3,286046999.7,N
1587735315.1,286047000.2,N
1587735335.9,286046999.8,N
1587735355.7,286047002.4,N
1587735375.5,286046999.7,N
1587735395.4,286047002.8,N
1587735415.2,286047000.4,N
1587735435.1,286047000.6,N
1587735436.0,286047000.6,N
1587735455.8,286047001.0,N
1587735475.6,286047000.8,N
1587735495.5,286047000.8,N
1587735515.3,286047000.8,N
1587735535.1,286046998.2,N
1587735555.9,286047000.5,N
1587735575.7,286047002.6,N
1587735595.6,286047002.5,N
1587735615.4,286047002.2,N
1587735635.2,286047000.3,N
1587735655.1,286047000.0,N
1587735656.0,286047000.0,N
1587735675.8,286046998.5,N
1587735695.7,286047002.4,N
1587735715.5,286047002.8,N
1587735735.3,286046999.9,N
1587735755.2,286046999.7,N
1587735775.0,286047000.0,N
1587735775.9,286047000.0,N
1587735795.7,286046999.7,N
1587735815.6,286047000.0,N
1587735835.4,286047000.7,N
1587735855.3,286046999.9,N
1587735875.1,286047000.0,N
1587735895.8,286047002.8,N
1587735915.7,286047002.6,N
1587735935.5,286047002.7,N
1587735955.4,286047000.3,N
1587735975.2,286047001.6,N
1587735995.0,286047002.3,N
1587735995.9,286047002.3,N
1587736015.8,286047001.8,N
1587736035.6,286047002.7,N
1587736055.5,286047002.3,N
1587736075.3,286047002.5,N
1587736095.1,286047002.0,N
1587736115.9,286047004.4,Y
1587736135.7,286047001.3,P
1587736155.6,286047001.4,P
1587736175.4,286047002.7,P
1587736195.2,286047002.4,Y
1587736215.1,286047000.4,P
1587736216.0,286047000.4,N
1587736235.8,286046999.8,N
1587736255.7,286046998.5,N
1587736275.5,286046998.5,N
1587736295.3,286046998.5,N
1587736315.2,286047000.9,N
1587736335.0,286046998.6,N
1587736335.9,286046998.6,N
1587736355.7,286046998.1,N
1587736375.6,286046998.8,N
1587736395.4,286046999.3,N
1587736415.3,286046996.6,Y
1587736435.1,286046999.0,P
1587736455.8,286046999.4,P
1587736475.7,286046999.2,P
1587736495.5,286046999.5,Y
1587736515.4,286046999.6,P
1587736535.2,286046997.0,P
1587736555.0,286046999.2,N
1587736555.9,286046999.2,N
1587736575.8,286046996.6,Y
1587736595.6,286046998.7,P
1587736615.5,286046997.3,P
1587736635.3,286046999.0,N
1587736655.1,286046998.2,N
1587736675.9,286046998.5,N
1587736695.7,286046998.3,Y
1587736715.5,286046999.9,P
1587736735.4,286047002.3,P
1587736755.2,286047002.2,N
1587736775.1,286047000.1,N
1587736776.0,286047000.1,N
1587736795.8,286047002.8,N
